• In Deutschland
  • Länderverzeichnis
  • Für 7 Tage
  • Wassertemperatur
  • Satellitenkarten
  • Wetterkarte
  • Widgets
  • user-avatar
    Anmelden

    Stündliche Wetter New Berlin

    Heute, 18 November, Samstag

    Zeit Temperatur Niederschläge Wind Luftdruck Luftfeuchtigkeit
    00:00 +6°C° 0,7 mm 1 m/S 727 mmHg 97%
    01:00 +5°C° 0,4 mm 2 m/S 726 mmHg 96%
    02:00 +5°C° 0,4 mm 2 m/S 726 mmHg 96%
    03:00 +4°C° 0,4 mm 3 m/S 725 mmHg 96%
    04:00 +4°C° 0,3 mm 4 m/S 725 mmHg 94%
    05:00 +2°C° 0,3 mm 5 m/S 725 mmHg 91%
    06:00 +2°C° 0,3 mm 6 m/S 725 mmHg 89%
    07:00 +2°C° 0,5 mm 7 m/S 725 mmHg 89%
    08:00 +2°C° 0,5 mm 7 m/S 725 mmHg 88%
    09:00 +1°C° 0,5 mm 8 m/S 725 mmHg 87%
    10:00 0°C° 2,8 mm 9 m/S 725 mmHg 86%
    11:00 0°C° 2,8 mm 9 m/S 725 mmHg 85%
    12:00 0°C° 2,8 mm 10 m/S 725 mmHg 85%
    13:00 0°C° 0,5 mm 10 m/S 725 mmHg 84%
    14:00 -2°C° 0,5 mm 10 m/S 726 mmHg 83%
    15:00 -1°C° 0,5 mm 9 m/S 726 mmHg 82%
    16:00 -1°C° 0 mm 9 m/S 727 mmHg 81%
    17:00 -1°C° 0 mm 9 m/S 728 mmHg 80%
    18:00 -3°C° 0 mm 9 m/S 729 mmHg 79%
    19:00 -4°C° 0 mm 9 m/S 730 mmHg 80%
    20:00 -4°C° 0 mm 9 m/S 731 mmHg 80%
    21:00 -5°C° 0 mm 9 m/S 731 mmHg 81%
    22:00 -6°C° 0 mm 8 m/S 732 mmHg 81%
    23:00 -6°C° 0 mm 8 m/S 733 mmHg 80%

    Morgen, 19 November, Sonntag

    Zeit Temperatur Niederschläge Wind Luftdruck Luftfeuchtigkeit
    00:00 -7°C° 0 mm 8 m/S 733 mmHg 80%
    01:00 -7°C° 0 mm 8 m/S 734 mmHg 79%
    02:00 -7°C° 0 mm 8 m/S 734 mmHg 77%
    03:00 -7°C° 0 mm 7 m/S 735 mmHg 76%
    04:00 -7°C° 0 mm 7 m/S 735 mmHg 76%
    05:00 -8°C° 0 mm 7 m/S 736 mmHg 75%
    06:00 -8°C° 0 mm 7 m/S 736 mmHg 75%
    07:00 -8°C° 0 mm 7 m/S 737 mmHg 73%
    08:00 -8°C° 0 mm 7 m/S 737 mmHg 71%
    09:00 -8°C° 0 mm 6 m/S 738 mmHg 68%
    10:00 -6°C° 0 mm 6 m/S 738 mmHg 66%
    11:00 -6°C° 0 mm 6 m/S 738 mmHg 63%
    12:00 -5°C° 0 mm 6 m/S 738 mmHg 61%
    13:00 -5°C° 0 mm 6 m/S 738 mmHg 60%
    14:00 -4°C° 0 mm 6 m/S 738 mmHg 59%
    15:00 -4°C° 0 mm 6 m/S 737 mmHg 58%
    16:00 -5°C° 0 mm 5 m/S 737 mmHg 61%
    17:00 -5°C° 0 mm 5 m/S 737 mmHg 65%
    18:00 -6°C° 0 mm 5 m/S 738 mmHg 69%
    19:00 -6°C° 0 mm 5 m/S 737 mmHg 68%
    20:00 -6°C° 0 mm 5 m/S 737 mmHg 67%
    21:00 -6°C° 0 mm 5 m/S 737 mmHg 66%
    22:00 -6°C° 0 mm 5 m/S 737 mmHg 66%
    23:00 -5°C° 0 mm 5 m/S 737 mmHg 65%

    übermorgen, 20 November, Montag

    Zeit Temperatur Niederschläge Wind Luftdruck Luftfeuchtigkeit
    00:00 -5°C° 0 mm 6 m/S 736 mmHg 64%
    01:00 -5°C° 0 mm 6 m/S 736 mmHg 68%
    02:00 -5°C° 0 mm 5 m/S 736 mmHg 71%
    03:00 -5°C° 0 mm 5 m/S 736 mmHg 74%
    04:00 -5°C° 0 mm 5 m/S 736 mmHg 77%
    05:00 -5°C° 0 mm 5 m/S 736 mmHg 80%
    06:00 -4°C° 0 mm 4 m/S 736 mmHg 83%
    07:00 -3°C° 0 mm 4 m/S 736 mmHg 80%
    08:00 -2°C° 0 mm 4 m/S 736 mmHg 77%
    09:00 0°C° 0 mm 3 m/S 737 mmHg 75%
    10:00 0°C° 0 mm 4 m/S 736 mmHg 72%
    11:00 +3°C° 0 mm 4 m/S 736 mmHg 70%
    12:00 +4°C° 0 mm 4 m/S 735 mmHg 67%
    13:00 +4°C° 0 mm 4 m/S 735 mmHg 68%
    14:00 +5°C° 0 mm 5 m/S 734 mmHg 68%
    15:00 +5°C° 0 mm 5 m/S 733 mmHg 68%
    16:00 +3°C° 0 mm 5 m/S 733 mmHg 71%
    17:00 +2°C° 0 mm 6 m/S 733 mmHg 73%
    18:00 +1°C° 0 mm 6 m/S 733 mmHg 75%
    19:00 +2°C° 0 mm 6 m/S 733 mmHg 72%
    20:00 +2°C° 0 mm 7 m/S 733 mmHg 70%
    21:00 +3°C° 0 mm 7 m/S 733 mmHg 68%
    22:00 +2°C° 0 mm 8 m/S 732 mmHg 68%
    23:00 +2°C° 0 mm 8 m/S 732 mmHg 68%

    21 November, Dienstag

    Zeit Temperatur Niederschläge Wind Luftdruck Luftfeuchtigkeit
    00:00 +2°C° 0 mm 8 m/S 732 mmHg 68%
    01:00 +2°C° 0 mm 8 m/S 732 mmHg 69%
    02:00 +2°C° 0 mm 9 m/S 731 mmHg 70%
    03:00 +1°C° 0 mm 9 m/S 731 mmHg 71%
    04:00 +1°C° 0 mm 8 m/S 731 mmHg 73%
    05:00 +1°C° 0 mm 8 m/S 732 mmHg 75%
    06:00 +1°C° 0 mm 8 m/S 732 mmHg 77%
    07:00 +1°C° 0 mm 8 m/S 732 mmHg 76%
    08:00 +1°C° 0 mm 8 m/S 733 mmHg 74%
    09:00 +1°C° 0 mm 8 m/S 734 mmHg 73%
    10:00 +1°C° 0 mm 8 m/S 734 mmHg 66%
    11:00 +1°C° 0 mm 8 m/S 734 mmHg 58%
    12:00 +1°C° 0 mm 9 m/S 735 mmHg 51%
    13:00 0°C° 0 mm 8 m/S 735 mmHg 50%
    14:00 -1°C° 0 mm 8 m/S 736 mmHg 48%
    15:00 -2°C° 0 mm 8 m/S 736 mmHg 46%
    16:00 -4°C° 0 mm 8 m/S 737 mmHg 48%
    17:00 -4°C° 0 mm 7 m/S 738 mmHg 50%
    18:00 -6°C° 0 mm 7 m/S 739 mmHg 53%
    19:00 -7°C° 0 mm 7 m/S 739 mmHg 52%
    20:00 -7°C° 0 mm 7 m/S 740 mmHg 51%
    21:00 -8°C° 0 mm 7 m/S 740 mmHg 50%
    22:00 -8°C° 0 mm 7 m/S 741 mmHg 51%
    23:00 -8°C° 0 mm 6 m/S 741 mmHg 51%

    22 November, Mittwoch

    Zeit Temperatur Niederschläge Wind Luftdruck Luftfeuchtigkeit
    00:00 -8°C° 0 mm 6 m/S 741 mmHg 51%
    01:00 -9°C° 0 mm 6 m/S 741 mmHg 52%
    02:00 -9°C° 0 mm 6 m/S 742 mmHg 53%
    03:00 -9°C° 0 mm 6 m/S 742 mmHg 54%
    04:00 -9°C° 0 mm 6 m/S 742 mmHg 55%
    05:00 -8°C° 0 mm 5 m/S 743 mmHg 56%
    06:00 -8°C° 0 mm 5 m/S 743 mmHg 56%
    07:00 -8°C° 0 mm 5 m/S 743 mmHg 54%
    08:00 -8°C° 0 mm 6 m/S 744 mmHg 52%
    09:00 -8°C° 0 mm 6 m/S 744 mmHg 50%
    10:00 -6°C° 0 mm 6 m/S 744 mmHg 47%
    11:00 -5°C° 0 mm 5 m/S 744 mmHg 45%
    12:00 -5°C° 0 mm 5 m/S 744 mmHg 42%
    13:00 -5°C° 0 mm 5 m/S 743 mmHg 42%
    14:00 -5°C° 0 mm 5 m/S 743 mmHg 41%
    15:00 -4°C° 0 mm 5 m/S 743 mmHg 41%
    16:00 -4°C° 0 mm 4 m/S 743 mmHg 44%
    17:00 -5°C° 0 mm 4 m/S 744 mmHg 47%
    18:00 -7°C° 0 mm 4 m/S 744 mmHg 51%
    19:00 -7°C° 0 mm 4 m/S 744 mmHg 52%
    20:00 -7°C° 0 mm 4 m/S 744 mmHg 53%
    21:00 -8°C° 0 mm 4 m/S 744 mmHg 53%
    22:00 -7°C° 0 mm 3 m/S 744 mmHg 54%
    23:00 -7°C° 0 mm 3 m/S 744 mmHg 55%

    23 November, Donnerstag

    Zeit Temperatur Niederschläge Wind Luftdruck Luftfeuchtigkeit
    00:00 -7°C° 0 mm 3 m/S 744 mmHg 56%
    01:00 -8°C° 0 mm 3 m/S 744 mmHg 57%
    02:00 -8°C° 0 mm 3 m/S 744 mmHg 58%
    03:00 -7°C° 0 mm 2 m/S 744 mmHg 58%
    04:00 -7°C° 0 mm 2 m/S 744 mmHg 59%
    05:00 -7°C° 0 mm 2 m/S 744 mmHg 59%
    06:00 -7°C° 0 mm 2 m/S 744 mmHg 59%
    07:00 -8°C° 0 mm 3 m/S 744 mmHg 55%
    08:00 -7°C° 0 mm 3 m/S 744 mmHg 51%
    09:00 -6°C° 0 mm 3 m/S 744 mmHg 47%
    10:00 -5°C° 0 mm 4 m/S 743 mmHg 42%
    11:00 -4°C° 0 mm 4 m/S 742 mmHg 38%
    12:00 -4°C° 0 mm 5 m/S 742 mmHg 33%
    13:00 -2°C° 0 mm 5 m/S 741 mmHg 33%
    14:00 -2°C° 0 mm 5 m/S 740 mmHg 32%
    15:00 -2°C° 0 mm 5 m/S 740 mmHg 31%
    16:00 -4°C° 0 mm 5 m/S 740 mmHg 34%
    17:00 -5°C° 0 mm 5 m/S 740 mmHg 37%
    18:00 -6°C° 0 mm 5 m/S 740 mmHg 41%
    19:00 -6°C° 0 mm 5 m/S 739 mmHg 41%
    20:00 -5°C° 0 mm 4 m/S 739 mmHg 41%
    21:00 -5°C° 0 mm 4 m/S 739 mmHg 42%
    22:00 -5°C° 0 mm 4 m/S 739 mmHg 43%
    23:00 -7°C° 0 mm 4 m/S 738 mmHg 45%
    Mehr zeigen